Regional Weather Roundup
Issued by NWS

Home | Current Version | Previous Version | Graphics & Text | Print | Product List | Glossary On
Versions: 1 2 3 4 5 6 7 8 9 10 11 12 13 14 15 16 17 18 19 20 21 22 23 24 25 26 27 28 29 30 31 32 33 34 35 36 37 38 39 40 41 42 43 44 45 46 47 48 49 50
000
ASUS43 KIND 232109
RWRIN

WEATHER ROUNDUP FOR INDIANA
NATIONAL WEATHER SERVICE INDIANAPOLIS IN
400 PM EST SUN NOV 23 2014

NOTE: "FAIR" INDICATES FEW OR NO CLOUDS BELOW 12,000 FEET WITH NO
SIGNIFICANT WEATHER AND/OR OBSTRUCTIONS TO VISIBILITY.

* - STATION DOES NOT REPORT WEATHER SUCH AS PRECIPITATION OR FOG.

+ - STATION NOT QUALITY CONTROLLED BY THE NATIONAL WEATHER SERVICE.
    USE DATA WITH CAUTION...ESPECIALLY DEWPOINT AND RELATIVE
    HUMIDITY OBSERVATIONS.

INZ001>003-010>013-019-020-232200-
NORTHWEST INDIANA

CITY           SKY/WX    TMP DP  RH WIND       PRES   REMARKS
GARY /AIRPORT/ LGT RAIN  52  50  93 SE9       29.52F
KNOX *+        CLOUDY    51  48  91 SE12      29.54F
LA PORTE +     RAIN      51  51 100 SE6       29.55F
MICHIGAN CITY+ RAIN      50  48  93 SE7       29.54F
MONTICELLO +   LGT RAIN  50  49  98 SE6       29.54F
RENSSELAER +   RAIN      52  52 100 SE13      29.52F
VALPARAISO     LGT RAIN  50  49  96 SE9       29.53F FOG

$$

LMZ046-743>745-232200-
SOUTHERN LAKE MICHIGAN

STATION/POSITION TIME  TEMP WIND        PRES
                       AIR  DIR/SP/G
                 (UTC) (F)  (DEG/KT/KT) (MB)
MICHIGAN CITY    2100   51  110/ 12/ 15   N/A

$$

INZ004-005-014>016-021>024-232200-
NORTH CENTRAL INDIANA

CITY           SKY/WX    TMP DP  RH WIND       PRES   REMARKS
GOSHEN         LGT RAIN  51  50  96 SE13      29.57F FOG
LOGANSPORT +   RAIN      50  48  93 SE9       29.56F
PERU/GRISSOM   LGT RAIN  52  52 100 SE13      29.55F FOG
ROCHESTER +    LGT RAIN  52  52 100 SE8       29.57F
SOUTH BEND     RAIN      52  49  89 SE9       29.57F FOG
WARSAW +       RAIN      50  50 100 SE7       29.58F

$$

INZ006>009-017-018-025>027-232200-
NORTHEAST INDIANA

CITY           SKY/WX    TMP DP  RH WIND       PRES   REMARKS
ANGOLA *+      CLOUDY    48  39  71 SE6       29.62F
AUBURN +       RAIN      52  48  87 SE5       29.63F
FORT WAYNE     RAIN      53  50  89 SE13      29.62F FOG
HUNTINGTON +   HVY RAIN  52  51  97 S8        29.60F

$$

INZ028-029-035-036-043>045-051>053-232200-
WEST CENTRAL INDIANA

CITY           SKY/WX    TMP DP  RH WIND       PRES   REMARKS
GREENCASTLE +  LGT RAIN  50  50 100 SE8       29.52F
LAFAYETTE      LGT RAIN  50  49  96 SE10      29.52F FOG
TERRE HAUTE    RAIN      52  51  97 SE6       29.49F FOG

$$

INZ030>032-037>040-046>048-054>057-064-065-232200-
CENTRAL INDIANA

CITY           SKY/WX    TMP DP  RH WIND       PRES   REMARKS
CP ATTERBURY + RAIN      52  50  93 SE9       29.55F
FRANKFORT +    RAIN     N/A N/A N/A E12       29.55F
INDIANAPOLIS   LGT RAIN  51  50  96 SE16G26   29.52F FOG
-EAGLE CREEK   RAIN      52  51  97 SE14G22   29.53F FOG
KOKOMO *+      CLOUDY    52  48  87 SE15      29.55F
MARION +       LGT RAIN  52  50  94 SE17      29.58F
MT COMFORT *+  CLOUDY    52 N/A N/A SE15      29.56F
SHELBYVILLE    LGT RAIN  54  51  90 SE16G25   29.56F FOG
ZIONSVILLE +   LGT RAIN  53  49  87 SE16      29.55F

$$

INZ033-034-041-042-049-050-058-059-232200-
EAST CENTRAL INDIANA

CITY           SKY/WX    TMP DP  RH WIND       PRES   REMARKS
MUNCIE         LGT RAIN  52  49  89 SE14      29.59F FOG

$$

INZ060-061-067>069-081>083-085>088-232200-
SOUTHWEST INDIANA

CITY           SKY/WX    TMP DP  RH WIND       PRES   REMARKS
EVANSVILLE     LGT RAIN  56  54  93 SE7       29.45F FOG
HUNTINGBURG *+ CLOUDY    55  52  88 SE14      29.48F
WASHINGTON +   RAIN      54  54 100 SE10      29.47F

$$

INZ062-063-066-070>080-084-089>092-232200-
SOUTH CENTRAL AND SOUTHEAST INDIANA

CITY           SKY/WX    TMP DP  RH WIND       PRES   REMARKS
BLOOMINGTON    LGT RAIN  53  52  96 SE16G26   29.50F FOG

$$



USA.gov is the U.S. government's official web portal to all federal, state and local government web resources and services.